TimeEST,TemperatureF,Dew PointF,Humidity,Sea Level PressureIn,VisibilityMPH,Wind Direction,Wind SpeedMPH,Gust SpeedMPH,PrecipitationIn,Events,Conditions,WindDirDegrees,DateUTC
12:53 AM,63.0,61.0,93,30.17,10.0,SSW,6.9,-,N/A,,Clear,210,2013-01-12 05:53:00
1:53 AM,63.0,61.0,93,30.16,10.0,SW,9.2,-,N/A,,Partly Cloudy,220,2013-01-12 06:53:00
2:53 AM,62.6,60.8,94,30.16,10.0,West,3.5,-,N/A,,Clear,260,2013-01-12 07:53:00
3:53 AM,61.0,59.0,93,30.16,10.0,Calm,Calm,-,N/A,,Clear,0,2013-01-12 08:53:00
4:02 AM,59.0,57.2,94,30.16,1.8,Calm,Calm,-,N/A,,Clear,0,2013-01-12 09:02:00
4:05 AM,57.2,57.2,100,30.16,1.0,Calm,Calm,-,N/A,,Mist,0,2013-01-12 09:05:00
4:12 AM,59.0,57.2,94,30.16,0.8,Calm,Calm,-,N/A,,Mist,0,2013-01-12 09:12:00
4:17 AM,57.2,57.2,100,30.16,1.2,Calm,Calm,-,N/A,,Partly Cloudy,0,2013-01-12 09:17:00
4:33 AM,59.0,57.2,94,30.15,2.0,Calm,Calm,-,N/A,,Partly Cloudy,0,2013-01-12 09:33:00
4:48 AM,57.2,55.4,94,30.15,1.2,Calm,Calm,-,N/A,,Clear,0,2013-01-12 09:48:00
4:53 AM,57.0,55.9,96,30.15,1.2,Calm,Calm,-,N/A,,Clear,0,2013-01-12 09:53:00
5:01 AM,57.2,55.4,94,30.15,2.0,SW,3.5,-,N/A,,Clear,220,2013-01-12 10:01:00
5:10 AM,57.2,57.2,100,30.15,8.0,SW,3.5,-,N/A,,Clear,230,2013-01-12 10:10:00
5:26 AM,57.2,55.4,94,30.15,2.5,SW,4.6,-,N/A,,Clear,230,2013-01-12 10:26:00
5:35 AM,59.0,57.2,94,30.15,8.0,SW,4.6,-,N/A,,Clear,230,2013-01-12 10:35:00
5:53 AM,57.9,57.0,97,30.16,4.0,Calm,Calm,-,N/A,,Partly Cloudy,0,2013-01-12 10:53:00
5:57 AM,57.2,57.2,100,30.16,1.8,West,3.5,-,N/A,,Partly Cloudy,260,2013-01-12 10:57:00
5:59 AM,57.2,57.2,100,30.16,0.8,West,3.5,-,N/A,,Mist,260,2013-01-12 10:59:00
6:11 AM,57.2,57.2,100,30.16,1.0,Calm,Calm,-,N/A,,Partly Cloudy,0,2013-01-12 11:11:00
6:15 AM,59.0,57.2,94,30.16,0.5,Calm,Calm,-,N/A,Fog,Fog,0,2013-01-12 11:15:00
6:51 AM,57.2,55.4,94,30.16,0.5,SW,4.6,-,N/A,Fog,Fog,230,2013-01-12 11:51:00
6:53 AM,57.9,57.0,97,30.17,0.5,SW,4.6,-,N/A,Fog,Fog,230,2013-01-12 11:53:00
6:59 AM,60.8,57.2,88,30.16,1.5,SW,3.5,-,N/A,,Clear,220,2013-01-12 11:59:00
7:02 AM,59.0,57.2,94,30.16,3.0,SW,4.6,-,N/A,,Clear,220,2013-01-12 12:02:00
7:35 AM,59.0,57.2,94,30.17,1.8,Calm,Calm,-,N/A,,Clear,0,2013-01-12 12:35:00
7:45 AM,59.0,57.2,94,30.17,3.0,SW,3.5,-,N/A,,Clear,220,2013-01-12 12:45:00
7:53 AM,59.0,57.9,96,30.18,4.0,SW,3.5,-,N/A,,Clear,220,2013-01-12 12:53:00
8:53 AM,64.0,61.0,90,30.18,10.0,WSW,6.9,-,N/A,,Clear,240,2013-01-12 13:53:00
9:53 AM,70.0,63.0,78,30.19,10.0,West,10.4,-,N/A,,Partly Cloudy,260,2013-01-12 14:53:00
10:53 AM,72.0,63.0,73,30.17,10.0,West,8.1,-,N/A,,Mostly Cloudy,260,2013-01-12 15:53:00
11:53 AM,73.9,62.1,66,30.15,10.0,West,10.4,-,N/A,,Mostly Cloudy,260,2013-01-12 16:53:00
12:53 PM,75.0,63.0,66,30.13,10.0,WNW,5.8,-,N/A,,Mostly Cloudy,290,2013-01-12 17:53:00
1:53 PM,75.0,62.1,64,30.12,10.0,WSW,9.2,-,N/A,,Clear,240,2013-01-12 18:53:00
2:53 PM,77.0,61.0,58,30.11,10.0,WSW,12.7,-,N/A,,Clear,250,2013-01-12 19:53:00
3:53 PM,78.1,59.0,52,30.11,10.0,West,8.1,-,N/A,,Clear,280,2013-01-12 20:53:00
4:53 PM,75.9,60.1,58,30.12,10.0,West,3.5,-,N/A,,Clear,280,2013-01-12 21:53:00
5:53 PM,66.9,61.0,81,30.12,10.0,Calm,Calm,-,N/A,,Clear,0,2013-01-12 22:53:00
6:53 PM,68.0,61.0,78,30.13,10.0,Calm,Calm,-,N/A,,Clear,0,2013-01-12 23:53:00
7:53 PM,64.4,60.8,88,30.12,10.0,Calm,Calm,-,N/A,,Clear,0,2013-01-13 00:53:00
8:53 PM,61.0,59.0,93,30.12,10.0,Calm,Calm,-,N/A,,Clear,0,2013-01-13 01:53:00
9:53 PM,63.0,59.0,87,30.12,10.0,Calm,Calm,-,N/A,,Clear,0,2013-01-13 02:53:00
10:53 PM,62.1,57.9,86,30.12,10.0,SSW,3.5,-,N/A,,Clear,210,2013-01-13 03:53:00
11:53 PM,61.0,57.0,87,30.13,10.0,SW,3.5,-,N/A,,Clear,230,2013-01-13 04:53:00